Location: Keppel Henge
(44.7900°N, 80.9447°W)
Time: 16:22:13
(UTC-04:00)

ISS - Pass Details

Date: 10 October 2017
Orbit: 401 x 408 km, 51.6° (Epoch: 19 October)

Event Time Altitude Azimuth Distance (km) Brightness Sun altitude
Rises 21:17:00 0° 296° (WNW) 2,328 1.3 -27.1°
Reaches altitude 10° 21:19:09 10° 289° (WNW) 1,466 0.0 -27.5°
Enters shadow 21:20:23 20° 279° (W) 1,010 -1.1 -27.7°
